Weather reports worldwide

Advertisment
Warcop, United Kingdom (3226): temperature & dewpoint: 18.11.2020 03:00:00 - 24.11.2020 03:00:00 (GMT)Warcop, United Kingdom (3226): temperature -20cm & temperature -100cm: 18.11.2020 03:00:00 - 24.11.2020 03:00:00 (GMT)Warcop, United Kingdom (3226): wind speed & gusts: 18.11.2020 03:00:00 - 24.11.2020 03:00:00 (GMT)Warcop, United Kingdom (3226): wind direction: 18.11.2020 03:00:00 - 24.11.2020 03:00:00 (GMT)Warcop, United Kingdom (3226): reduced air pressure: 18.11.2020 03:00:00 - 24.11.2020 03:00:00 (GMT)Warcop, United Kingdom (3226): visibility: 18.11.2020 03:00:00 - 24.11.2020 03:00:00 (GMT)Warcop, United Kingdom (3226): precipitation: 18.11.2020 03:00:00 - 24.11.2020 03:00:00 (GMT)
Date & Time tt [°C] td [°C] tt -20cm [°C] tt -100cm [°C] ff [km/h] ff [kn] fx [km/h] fx [kn] dd ppp [hPa] vv [km] rr [mm]
24.11.2020 03:00:00 9,9 9,1 - - 37 20 61 33 SW 1012,1 22 0,2
24.11.2020 02:00:00 9,9 8,8 - - 37 20 63 34 SW 1012,7 19 0,4
24.11.2020 01:00:00 9,9 9,0 - - 39 21 54 29 SW 1013,4 12 0,4
24.11.2020 00:00:00 9,5 8,9 - - 31 17 59 32 SW 1013,9 6 0,4
23.11.2020 23:00:00 9,4 8,8 - - 37 20 54 29 SW 1014,1 4,8 0,6
23.11.2020 22:00:00 9,1 8,4 - - 31 17 59 32 SW 1014,7 8 0,4
23.11.2020 21:00:00 8,8 8,5 - - 31 17 48 26 SW 1015,3 2,5 0,6
23.11.2020 20:00:00 8,7 8,3 - - 35 19 57 31 SW 1015,5 2,9 0,6
23.11.2020 19:00:00 8,6 8,2 - - 35 19 54 29 SW 1015,6 3,5 0,4
23.11.2020 18:00:00 8,4 8,2 - - 22 12 52 28 SSW 1016,5 3,1 0,2
23.11.2020 17:00:00 8,1 7,8 - - 39 21 55 30 SW 1016,6 3,3 0,4
23.11.2020 16:00:00 7,0 6,6 - - 34 18 46 25 SW 1016,9 2,6 0,0
23.11.2020 15:00:00 6,6 6,1 - - 22 12 - - SW 1017,7 5 0,0
23.11.2020 14:00:00 5,8 5,1 - - 26 14 46 25 SW 1019,0 8 0,0
23.11.2020 13:00:00 6,2 4,1 - - 24 13 - - SW 1019,7 26 0,0
23.11.2020 12:00:00 6,0 3,7 - - 24 13 - - SW 1021,0 50 0,0
23.11.2020 11:00:00 5,7 3,9 - - 21 11 - - SW 1022,2 50 0,0
23.11.2020 10:00:00 5,4 3,8 - - 13 7 - - SSW 1022,5 50 0,0
23.11.2020 09:00:00 5,8 3,6 7,0 9,2 9 5 - - SSW 1022,6 50 0,0
23.11.2020 08:00:00 4,6 3,1 - - 11 6 - - SE 1022,6 50 0,0
23.11.2020 07:00:00 4,0 3,1 - - 4 2 - - S 1023,5 45 0,0
23.11.2020 06:00:00 4,1 2,7 - - 13 7 - - W 1023,5 50 0,0
23.11.2020 05:00:00 3,2 1,5 - - 2 1 - - ENE 1023,9 50 0,0
23.11.2020 04:00:00 3,3 1,7 - - 9 5 - - S 1024,1 50 0,0
23.11.2020 03:00:00 4,7 2,8 - - 11 6 - - SW 1024,0 50 0,0
23.11.2020 02:00:00 4,3 2,6 - - 9 5 - - WSW 1024,1 50 0,0
23.11.2020 01:00:00 2,1 0,6 - - 4 2 - - SSE 1024,7 50 0,0
23.11.2020 00:00:00 3,2 1,0 - - 9 5 59 32 W 1024,7 50 0,0
22.11.2020 23:00:00 3,1 1,4 - - 4 2 - - E 1024,6 50 0,0
22.11.2020 22:00:00 3,7 1,9 - - 8 4 - - NW 1024,1 50 0,0
22.11.2020 21:00:00 3,5 1,6 - - 5 3 - - WNW 1024,0 50 0,0
22.11.2020 20:00:00 3,6 1,7 - - 4 2 - - NW 1023,9 50 0,0
22.11.2020 19:00:00 2,4 -0,2 - - 4 2 - - E 1024,0 50 0,0
22.11.2020 18:00:00 2,7 1,2 - - 2 1 - - SW 1023,4 50 0,0
22.11.2020 17:00:00 3,4 0,8 - - 4 2 - - SW 1023,1 50 0,0
22.11.2020 16:00:00 4,3 1,4 - - 8 4 - - SSE 1023,0 50 0,0
22.11.2020 15:00:00 5,3 2,3 - - 11 6 - - W 1023,0 50 0,0
22.11.2020 14:00:00 6,3 2,1 - - 16 9 - - W 1022,9 50 0,0
22.11.2020 13:00:00 7,0 2,0 - - 21 11 - - WNW 1022,9 35 0,0
22.11.2020 12:00:00 7,4 1,3 - - 13 7 - - W 1023,4 40 0,0
22.11.2020 11:00:00 7,1 3,2 - - 11 6 - - WSW 1023,4 27 0,0
22.11.2020 10:00:00 4,4 1,8 - - 13 7 - - SSE 1023,5 40 0,0
22.11.2020 09:00:00 4,9 1,4 7,7 9,4 13 7 - - W 1023,1 35 0,0
22.11.2020 08:00:00 4,1 0,9 - - 5 3 - - SW 1022,6 45 0,0
22.11.2020 07:00:00 3,9 0,9 - - 13 7 - - W 1021,8 45 0,0
22.11.2020 06:00:00 4,7 1,0 - - 13 7 - - W 1021,2 45 0,0
22.11.2020 05:00:00 5,0 1,1 - - 28 15 48 26 WNW 1020,0 30 0,0
22.11.2020 04:00:00 5,1 1,3 - - 26 14 - - W 1020,3 50 0,0
22.11.2020 03:00:00 5,2 1,2 - - 24 13 - - WNW 1020,4 45 0,0
22.11.2020 02:00:00 5,5 1,5 - - 22 12 - - WNW 1020,6 40 0,0
22.11.2020 01:00:00 5,8 2,0 - - 26 14 - - WNW 1020,3 50 0,0
22.11.2020 00:00:00 6,2 3,0 - - 26 14 46 25 WNW 1019,9 10 0,0
21.11.2020 23:00:00 6,3 2,2 - - 15 8 - - WNW 1019,6 50 0,0
21.11.2020 22:00:00 5,8 2,5 - - 15 8 - - WNW 1019,6 45 0,2
21.11.2020 21:00:00 5,8 3,9 - - 8 4 - - NW 1019,7 45 0,0
21.11.2020 20:00:00 6,5 5,4 - - 5 3 - - WNW 1019,6 9 0,2
21.11.2020 19:00:00 6,6 5,0 - - 13 7 - - WNW 1019,3 9 0,2
21.11.2020 18:00:00 5,1 3,2 - - 2 1 - - WSW 1019,2 45 0,0
21.11.2020 17:00:00 5,4 3,2 - - 5 3 - - NNW 1018,8 40 0,0
21.11.2020 16:00:00 7,5 3,8 - - 15 8 - - WNW 1018,4 50 0,0
21.11.2020 15:00:00 8,7 4,0 - - 22 12 - - WNW 1018,2 50 0,0
21.11.2020 14:00:00 9,3 6,1 - - 21 11 - - WNW 1017,9 50 0,0
21.11.2020 13:00:00 9,2 6,3 - - 21 11 - - NW 1018,1 35 0,0
21.11.2020 12:00:00 8,2 7,9 - - 9 5 - - N 1018,0 50 2,8
21.11.2020 11:00:00 7,9 7,0 - - 16 9 59 32 NNW 1017,8 3,5 2,0
21.11.2020 10:00:00 9,4 8,5 - - 29 16 52 28 WSW 1017,1 13 0,0
21.11.2020 09:00:00 9,3 8,5 8,2 9,5 31 17 - - WSW 1016,9 9 0,0
21.11.2020 08:00:00 9,1 8,3 - - 28 15 - - WSW 1017,0 7 0,0
21.11.2020 07:00:00 8,9 8,2 - - 26 14 48 26 SW 1017,2 5 0,0
21.11.2020 06:00:00 9,1 8,3 - - 29 16 54 29 WSW 1016,9 11 0,0
21.11.2020 05:00:00 9,5 8,7 - - 29 16 59 32 WSW 1016,9 6 0,2
21.11.2020 04:00:00 9,7 9,1 - - 35 19 59 32 WSW 1017,1 6 0,6
21.11.2020 03:00:00 9,7 8,9 - - 31 17 48 26 WSW 1017,1 9 0,0
21.11.2020 02:00:00 9,7 8,9 - - 24 13 - - SW 1018,5 4,6 0,0
21.11.2020 01:00:00 9,8 8,9 - - 29 16 48 26 SW 1018,7 17 0,0
21.11.2020 00:00:00 10,1 8,9 - - 26 14 - - SW 1019,0 50 0,0
20.11.2020 23:00:00 10,3 8,8 - - 26 14 50 27 WSW 1019,8 50 0,0
20.11.2020 22:00:00 10,0 9,0 - - 15 8 - - WSW 1020,5 20 0,0
20.11.2020 21:00:00 10,4 8,9 - - 11 6 46 25 WSW 1020,8 45 0,0
20.11.2020 20:00:00 10,2 9,0 - - 29 16 48 26 WSW 1020,8 35 0,2
20.11.2020 19:00:00 10,4 9,1 - - 35 19 52 28 WSW 1021,1 10 0,0
20.11.2020 18:00:00 10,4 9,3 - - 31 17 48 26 WSW 1021,3 13 0,0
20.11.2020 17:00:00 10,5 9,4 - - 26 14 - - WSW 1021,4 50 0,0
20.11.2020 16:00:00 9,4 9,2 - - 21 11 - - SW 1021,8 14 0,0
20.11.2020 15:00:00 8,8 8,6 - - 15 8 - - SW 1022,1 8 0,0
20.11.2020 14:00:00 8,8 8,4 - - 11 6 - - SW 1023,2 6 0,0
20.11.2020 13:00:00 8,6 8,3 - - 13 7 - - SSW 1024,1 7 0,2
20.11.2020 12:00:00 8,0 7,4 - - 13 7 - - SSW 1025,4 8 0,6
20.11.2020 11:00:00 7,2 6,7 - - 4 2 - - S 1026,2 10 0,6
20.11.2020 10:00:00 6,9 6,4 - - 13 7 - - S 1026,7 6 0,0
20.11.2020 09:00:00 6,0 5,6 7,5 9,7 5 3 - - SSE 1027,1 3,4 0,0
20.11.2020 08:00:00 5,4 4,6 - - 11 6 - - S 1027,7 26 0,0
20.11.2020 07:00:00 5,4 4,1 - - 9 5 - - SSW 1028,2 50 0,0
20.11.2020 06:00:00 5,3 3,4 - - 5 3 - - S 1028,5 45 0,0
20.11.2020 05:00:00 4,5 2,4 - - 4 2 - - SW 1029,4 45 0,0
20.11.2020 04:00:00 1,7 1,0 - - 4 2 - - ENE 1030,5 45 0,0
20.11.2020 03:00:00 0,6 0,0 - - 2 1 - - SE 1031,1 40 0,0
20.11.2020 02:00:00 0,7 -0,3 - - 4 2 - - SSW 1031,6 50 0,0
20.11.2020 01:00:00 0,8 -0,5 - - 4 2 - - SSE 1031,9 50 0,0
20.11.2020 00:00:00 1,7 -0,7 - - 8 4 - - SE 1032,4 50 0,0
19.11.2020 23:00:00 0,8 -1,6 - - 2 1 - - E 1032,9 50 0,0
19.11.2020 22:00:00 0,6 -1,7 - - 4 2 - - SSE 1032,8 50 0,0
19.11.2020 21:00:00 1,0 -1,4 - - 5 3 - - NNE 1032,8 50 0,0
19.11.2020 20:00:00 0,7 -1,9 - - 8 4 - - NE 1032,8 50 0,0
19.11.2020 19:00:00 0,7 -1,8 - - 9 5 - - NE 1032,0 50 0,0
19.11.2020 18:00:00 0,4 -2,4 - - 5 3 - - N 1031,8 50 0,0
19.11.2020 17:00:00 1,2 -2,2 - - 5 3 - - NNE 1031,4 50 0,0
19.11.2020 16:00:00 3,4 -0,6 - - 5 3 - - WNW 1030,9 50 0,0
19.11.2020 15:00:00 4,0 -0,4 - - 9 5 - - NW 1030,0 50 0,0
19.11.2020 14:00:00 4,5 -1,2 - - 13 7 - - NNW 1028,7 45 0,0
19.11.2020 13:00:00 4,5 -1,4 - - 13 7 - - NNW 1029,0 45 0,0
19.11.2020 12:00:00 4,1 -1,3 - - 18 10 - - NW 1028,5 50 0,0
19.11.2020 11:00:00 3,8 -0,2 - - 22 12 - - NW 1027,6 40 0,0
19.11.2020 10:00:00 3,3 0,5 - - 15 8 - - NNW 1025,1 50 0,0
19.11.2020 09:00:00 2,4 0,0 9,0 9,7 9 5 - - N 1023,9 50 0,0
19.11.2020 08:00:00 3,4 -0,5 - - 22 12 - - NNW 1021,9 50 0,0
19.11.2020 07:00:00 3,7 0,8 - - 21 11 46 25 N 1019,8 50 0,0
19.11.2020 06:00:00 4,8 1,3 - - 31 17 61 33 NE 1017,6 50 0,0
19.11.2020 05:00:00 5,3 2,2 - - 35 19 63 34 NNE 1015,1 50 0,0
19.11.2020 04:00:00 6,1 5,5 - - 13 7 - - NNW 1012,8 22 2,4
19.11.2020 03:00:00 6,4 5,3 - - 11 6 - - NW 1010,5 35 0,0
19.11.2020 02:00:00 6,8 5,2 - - 21 11 - - NW 1008,4 50 0,0
19.11.2020 01:00:00 6,9 5,8 - - 16 9 - - WNW 1006,5 50 1,0
19.11.2020 00:00:00 6,8 6,0 - - 5 3 - - W 1005,2 14 0,8
18.11.2020 23:00:00 6,9 5,7 - - 26 14 - - WSW 1004,4 50 0,4
18.11.2020 22:00:00 6,5 5,6 - - 28 15 50 27 WSW 1004,9 4,9 0,8
18.11.2020 21:00:00 6,9 4,3 - - 29 16 46 25 WSW 1005,2 28 0,0
18.11.2020 20:00:00 6,7 3,6 - - 26 14 - - WSW 1005,4 24 0,0
18.11.2020 19:00:00 6,4 4,0 - - 22 12 52 28 W 1005,1 50 0,0
18.11.2020 18:00:00 6,0 4,4 - - 35 19 55 30 WSW 1004,7 17 0,4
18.11.2020 17:00:00 6,7 3,6 - - 26 14 50 27 WSW 1004,9 17 0,0
18.11.2020 16:00:00 7,4 3,5 - - 31 17 61 33 WSW 1004,5 50 0,0
18.11.2020 15:00:00 8,3 6,0 - - 39 21 57 31 WSW 1003,7 50 0,2
18.11.2020 14:00:00 9,4 8,6 - - 31 17 - - WSW 1002,8 14 1,0
18.11.2020 13:00:00 10,7 9,8 - - 28 15 65 35 WSW 1002,3 4,6 0,6
18.11.2020 12:00:00 12,5 11,5 - - 41 22 61 33 SSW 1001,8 6 0,4
18.11.2020 11:00:00 11,7 10,9 - - 34 18 52 28 S 1003,5 10 0,4
18.11.2020 10:00:00 11,7 10,8 - - 35 19 57 31 SSW 1004,3 7 0,6
18.11.2020 09:00:00 11,2 9,8 9,7 9,7 11 6 - - SSW 1005,9 14 0,0
18.11.2020 08:00:00 11,6 9,3 - - 21 11 - - SSW 1006,8 50 0,0
18.11.2020 07:00:00 11,4 9,1 - - 18 10 - - SSW 1007,9 50 0,0
18.11.2020 06:00:00 11,1 8,8 - - 24 13 48 26 SSW 1008,7 40 0,0
18.11.2020 05:00:00 10,9 8,7 - - 34 18 54 29 SSW 1009,3 50 0,0
18.11.2020 04:00:00 10,7 8,6 - - 24 13 - - SSW 1010,3 40 0,0
18.11.2020 03:00:00 10,5 8,5 - - 16 9 - - SSW 1011,5 30 0,0

tt = temperature
td = dewpoint
tt -20cm = temperature -20cm
tt -100cm = temperature -100cm
ff = wind speed
fx = gusts
dd = wind direction
ppp = reduced air pressure
vv = visibility
rr = precipitation

Next stations